Time,TemperatureF,DewpointF,PressureIn,WindDirection,WindDirectionDegrees,WindSpeedMPH,WindSpeedGustMPH,Humidity,HourlyPrecipIn,Conditions,Clouds,dailyrainin,SoftwareType,DateUTC
2014-08-22 00:01:00,71.1,69.3,30.00,SW,219,0.0,3.0,94,0.98,,,0.09,Wunderground v.1.15,2014-08-22 04:01:00,
2014-08-22 00:03:00,70.9,69.1,30.00,SW,217,0.0,3.0,94,0.34,,,0.10,Wunderground v.1.15,2014-08-22 04:03:00,
2014-08-22 00:04:00,70.8,69.0,30.00,SW,217,1.0,3.0,94,0.30,,,0.11,Wunderground v.1.15,2014-08-22 04:04:00,
2014-08-22 00:07:00,70.4,68.9,29.97,West,265,0.0,5.0,95,0.16,,,0.11,Wunderground v.1.15,2014-08-22 04:07:00,
2014-08-22 00:12:00,70.3,68.8,29.97,SW,223,0.0,1.0,95,0.19,,,0.13,Wunderground v.1.15,2014-08-22 04:12:00,
2014-08-22 00:16:00,70.1,68.9,29.97,West,266,7.0,10.0,96,0.21,,,0.15,Wunderground v.1.15,2014-08-22 04:16:00,
2014-08-22 00:21:00,69.9,68.7,29.97,WNW,292,0.0,1.0,96,0.28,,,0.17,Wunderground v.1.15,2014-08-22 04:21:00,
2014-08-22 00:27:00,69.6,68.4,29.98,WNW,286,0.0,2.0,96,0.22,,,0.19,Wunderground v.1.15,2014-08-22 04:27:00,
2014-08-22 00:32:00,69.6,68.4,29.98,WNW,286,2.0,6.0,96,0.21,,,0.21,Wunderground v.1.15,2014-08-22 04:32:00,
2014-08-22 00:38:00,69.6,68.4,29.98,WNW,290,1.0,6.0,96,0.19,,,0.23,Wunderground v.1.15,2014-08-22 04:38:00,
2014-08-22 00:43:00,69.6,68.4,29.98,SSW,209,5.0,5.0,96,0.15,,,0.24,Wunderground v.1.15,2014-08-22 04:43:00,
2014-08-22 00:49:00,69.6,68.7,29.98,South,185,0.0,7.0,97,0.23,,,0.26,Wunderground v.1.15,2014-08-22 04:49:00,
2014-08-22 00:55:00,69.6,68.7,29.98,West,259,1.0,2.0,97,0.27,,,0.29,Wunderground v.1.15,2014-08-22 04:55:00,
2014-08-22 01:00:00,69.6,68.7,29.98,WNW,298,0.0,2.0,97,0.33,,,0.31,Wunderground v.1.15,2014-08-22 05:00:00,
2014-08-22 01:06:00,69.6,68.7,29.98,WNW,298,1.0,2.0,97,0.16,,,0.32,Wunderground v.1.15,2014-08-22 05:06:00,
2014-08-22 01:11:00,69.6,68.7,29.98,West,266,0.0,2.0,97,0.13,,,0.33,Wunderground v.1.15,2014-08-22 05:11:00,
2014-08-22 01:16:00,69.6,68.7,29.98,West,266,0.0,2.0,97,0.09,,,0.34,Wunderground v.1.15,2014-08-22 05:16:00,
2014-08-22 01:22:00,69.6,68.7,29.98,West,266,0.0,1.0,97,0.09,,,0.35,Wunderground v.1.15,2014-08-22 05:22:00,
2014-08-22 01:28:00,69.6,68.7,29.98,SW,236,0.0,3.0,97,0.07,,,0.35,Wunderground v.1.15,2014-08-22 05:28:00,
2014-08-22 01:33:00,69.6,68.7,29.98,NNW,331,1.0,1.0,97,0.05,,,0.36,Wunderground v.1.15,2014-08-22 05:33:00,
2014-08-22 01:39:00,69.6,68.7,29.98,WNW,283,4.0,4.0,97,0.05,,,0.36,Wunderground v.1.15,2014-08-22 05:39:00,
2014-08-22 01:44:00,69.8,68.9,29.98,West,259,0.0,2.0,97,0.05,,,0.36,Wunderground v.1.15,2014-08-22 05:44:00,
2014-08-22 01:50:00,69.8,69.2,29.98,West,271,3.0,3.0,98,0.00,,,0.36,Wunderground v.1.15,2014-08-22 05:50:00,
2014-08-22 01:56:00,69.8,69.2,29.97,West,271,0.0,3.0,98,0.00,,,0.36,Wunderground v.1.15,2014-08-22 05:56:00,
2014-08-22 02:01:00,69.6,69.0,29.97,WNW,291,0.0,0.0,98,0.00,,,0.36,Wunderground v.1.15,2014-08-22 06:01:00,
2014-08-22 02:06:00,69.6,69.0,29.97,WNW,291,0.0,2.0,98,0.00,,,0.36,Wunderground v.1.15,2014-08-22 06:06:00,
2014-08-22 02:11:00,69.6,69.0,29.96,WNW,291,0.0,2.0,98,0.00,,,0.37,Wunderground v.1.15,2014-08-22 06:11:00,
2014-08-22 02:16:00,69.6,69.0,29.96,WNW,291,0.0,2.0,98,0.00,,,0.37,Wunderground v.1.15,2014-08-22 06:16:00,
2014-08-22 02:21:00,69.4,68.8,29.96,WNW,291,0.0,0.0,98,0.00,,,0.37,Wunderground v.1.15,2014-08-22 06:21:00,
2014-08-22 02:26:00,69.4,68.8,29.95,WNW,291,0.0,0.0,98,0.00,,,0.37,Wunderground v.1.15,2014-08-22 06:26:00,
2014-08-22 02:31:00,69.4,68.8,29.95,WNW,291,0.0,0.0,98,0.00,,,0.37,Wunderground v.1.15,2014-08-22 06:31:00,
2014-08-22 02:36:00,69.3,68.7,29.95,WNW,291,0.0,1.0,98,0.00,,,0.37,Wunderground v.1.15,2014-08-22 06:36:00,
2014-08-22 02:41:00,69.3,68.7,29.94,WNW,291,0.0,0.0,98,0.00,,,0.37,Wunderground v.1.15,2014-08-22 06:41:00,
2014-08-22 02:46:00,69.3,68.7,29.94,WNW,282,2.0,6.0,98,0.00,,,0.37,Wunderground v.1.15,2014-08-22 06:46:00,
2014-08-22 02:51:00,69.3,68.7,29.95,WNW,282,0.0,0.0,98,0.00,,,0.37,Wunderground v.1.15,2014-08-22 06:51:00,
2014-08-22 02:56:00,69.3,68.7,29.95,WNW,282,0.0,1.0,98,0.00,,,0.37,Wunderground v.1.15,2014-08-22 06:56:00,
2014-08-22 03:01:00,69.3,68.7,29.95,WNW,282,0.0,0.0,98,0.00,,,0.37,Wunderground v.1.15,2014-08-22 07:01:00,